TimeEST,TemperatureF,Dew PointF,Humidity,Sea Level PressureIn,VisibilityMPH,Wind Direction,Wind SpeedMPH,Gust SpeedMPH,PrecipitationIn,Events,Conditions,WindDirDegrees,DateUTC
12:56 AM,1.9,-6.0,69,30.53,10.0,WNW,5.8,-,N/A,,Clear,300,2013-01-25 05:56:00
1:56 AM,1.0,-6.0,72,30.52,10.0,NW,4.6,-,N/A,,Clear,310,2013-01-25 06:56:00
2:56 AM,-4.0,-8.0,83,30.51,10.0,Calm,Calm,-,N/A,,Clear,0,2013-01-25 07:56:00
3:56 AM,-5.1,-9.9,80,30.50,10.0,Calm,Calm,-,N/A,,Clear,0,2013-01-25 08:56:00
4:56 AM,-5.1,-9.9,80,30.49,10.0,Calm,Calm,-,N/A,,Clear,0,2013-01-25 09:56:00
5:56 AM,-5.1,-9.0,83,30.47,10.0,Calm,Calm,-,N/A,,Clear,0,2013-01-25 10:56:00
6:56 AM,-2.2,-7.6,78,30.42,10.0,Calm,Calm,-,N/A,,Clear,0,2013-01-25 11:56:00
7:56 AM,-0.9,-6.0,79,30.45,10.0,Calm,Calm,-,N/A,,Clear,0,2013-01-25 12:56:00
8:56 AM,1.9,-5.1,72,30.44,10.0,Calm,Calm,-,N/A,,Clear,0,2013-01-25 13:56:00
9:56 AM,5.0,-5.1,63,30.42,10.0,ENE,4.6,-,N/A,,Clear,70,2013-01-25 14:56:00
10:56 AM,9.0,-5.1,53,30.39,10.0,Calm,Calm,-,N/A,,Clear,0,2013-01-25 15:56:00
11:56 AM,10.9,-2.9,54,30.34,10.0,North,3.5,-,N/A,,Clear,350,2013-01-25 16:56:00
12:56 PM,12.0,-2.0,53,30.29,10.0,East,4.6,-,N/A,,Partly Cloudy,90,2013-01-25 17:56:00
1:56 PM,12.0,-2.9,51,30.27,10.0,Calm,Calm,-,N/A,,Overcast,0,2013-01-25 18:56:00
2:56 PM,12.9,-2.0,51,30.25,10.0,ESE,3.5,-,N/A,,Overcast,110,2013-01-25 19:56:00
3:56 PM,12.9,-2.9,49,30.24,10.0,NE,3.5,-,N/A,,Overcast,50,2013-01-25 20:56:00
4:56 PM,12.9,-2.0,51,30.21,10.0,ENE,5.8,-,N/A,,Overcast,70,2013-01-25 21:56:00
5:56 PM,12.9,-2.0,51,30.20,10.0,ENE,3.5,-,N/A,,Overcast,60,2013-01-25 22:56:00
6:56 PM,12.0,-0.9,56,30.18,10.0,ENE,4.6,-,N/A,,Overcast,70,2013-01-25 23:56:00
7:56 PM,12.0,-0.0,59,30.17,10.0,East,4.6,-,N/A,,Overcast,80,2013-01-26 00:56:00
8:56 PM,12.0,3.9,70,30.17,7.0,ENE,5.8,-,N/A,,Overcast,60,2013-01-26 01:56:00
9:56 PM,10.9,6.1,81,30.17,5.0,NE,3.5,-,0.00,,Haze,40,2013-01-26 02:56:00
10:56 PM,10.9,6.1,81,30.16,6.0,NNE,5.8,-,N/A,,Haze,30,2013-01-26 03:56:00
11:56 PM,8.1,3.9,83,30.16,10.0,NE,4.6,-,N/A,,Scattered Clouds,50,2013-01-26 04:56:00